STARLINK-1338, 45532

Orbit data source: Space-Track

STARLINK-1338, 45532 is a payload satellite owned by SpaceX/Seattle (US) in LEO that was launched on Wed, 22 Apr 2020 UTC via an FALCON 9 launch vehicle from the Air Force Eastern Test Range (AFETR). Payload-class satellites include a variety of spacecraft equipped with specific instruments for various scientific and technological missions. These include communications satellites like Starlink; space stations such as the ISS; scientific satellites like the Hubble; Earth observation satellites from companies like Planet Labs, Umbra, and HawkEye 360; GPS; miniature CubeSats for education and research; and military/defense satellites.

Loading next visibility...
Identifier
45532, 2020-025B
Orbit
LEO
Country
Flag of USUS
Related business
Manufacturer
SpaceX/Seattle
Mission
Operational Commercial Communications
Bus & Motor
STARLINK, Unknown motor
Mass
260 kg wet, ~248 kg dry
Launch date (UTC)
2020-04-22 (5 years ago)
Launch vehicle
FALCON 9
Launch site
Air Force Eastern Test Range (AFETR)
Object type
Payload
Rocket body
Debris
Shape & HBR
Box + 1 Pan, 10.1 m
Radar Cross Section
13.562 m², Large (>1 m²)

Expand to show TLE details & history
Last TLE update: 14 hours ago

TLE from 14 hours ago
0 STARLINK-1338
1 45532U 20025B   25287.73807401 -.00000176  00000-0  70985-5 0  9991
2 45532  53.0576  41.8170 0001327  92.3060 267.8081 15.06396022303092
Epoch: 2025-10-14T17:42Z
TLE epoch observation values (Epoch: 2025-10-14T17:42:49.594Z)
Latitude
-0.00002°
Longitude
112.58815°
Altitude
548.139 km
Speed
7.589 km/s
True Right ascension
02h 47m 16s
True Declination
0° 00' 00"
Sunlit
Object was in full shadow at epoch
Visualization orbit readout
Latitude
Unknown
Longitude
Unknown
Altitude
Unknown
Speed
Unknown
Apparent Right ascension
Unknown
Apparent Declination
Unknown
Sunlit
N/A
Visualization observer readout
Local Sidereal Time
02:20:48
Azimuth
Unknown
Elevation
Unknown
Doppler factor
Unknown
Orbital elements
Apogee altitude
548.413 km
Perigee altitude
546.575 km
Semi-major axis
6,925.631 km
Eccentricity
0.00013
Inclination
53.0576°
RAAN
41.817°
Arg. of periapsis
92.306°
True anomaly
267.7929°
Mean anomaly
267.8081°
Eccentric anomaly
267.8005°
Mean motion
3.76577 °/min
Orbital period
95.6 mins
BSTAR
0.0000070985
Loading maneuver chart data...
Computing Atmospheric mass density...

Documentation

Showing up to 5 results
|